Weather History for KEIK - May, 2013

Change the Weather History Date:

Friday, May 3, 2013

  Actual Average (KBJC) Record (KBJC)
Temperature  
Mean Temperature 43 °F -  
Max Temperature 59 °F 63 °F 82 °F (2012)
Min Temperature 27 °F 41 °F 26 °F (1988)
Degree Days  
Heating Degree Days 22    
Moisture  
Dew Point 28 °F    
Average Humidity 59    
Maximum Humidity 96    
Minimum Humidity 25    
Precipitation  
Precipitation 0.00 in - - ()
Sea Level Pressure  
Sea Level Pressure 30.22 in    
Wind  
Wind Speed 1 mph (NE)    
Max Wind Speed 10 mph    
Max Gust Speed 16 mph    
Visibility 10 miles    
Events      
Averages and records for this station are not official NWS values.
T = Trace of Precipitation, MM = Missing Value Source: NWS Daily Summary

Daily Weather History Graph

Daily Weather History Graph

Search for Another Location

Airport or City:

Trip Planner

Search our weather history database for the weather conditions in past years. The results will help you decide how hot, cold, wet, or windy it might be!

Date:

Astronomy

May. 03, 2013 Rise Set
Actual Time 5:57 AM MDT 7:57 PM MDT
Civil Twilight 5:27 AM MDT 8:26 PM MDT
Nautical Twilight 4:51 AM MDT 9:03 PM MDT
Astronomical Twilight 4:12 AM MDT 9:42 PM MDT
Moon 2:23 AM MDT (5/3) 1:54 PM MDT (5/3)
Length of Visible Light 14h 59m
Length of Day
13h 59m
Last Quarter, 36% of the Moon is Illuminated
May 3
Last Quarter
May 9
New
May 17
First Quarter
May 24
Full
May 31
Last Quarter

Hourly Weather History & Observations

Time (MDT) Temp. Windchill Dew Point Humidity Pressure Visibility Wind Dir Wind Speed Gust Speed Precip Events Conditions
12:16 AM 31.3 °F - 29.3 °F 92% 30.41 in 10.0 mi Calm Calm - N/A   Clear
12:36 AM 31.8 °F - 29.3 °F 90% 30.41 in 10.0 mi Calm Calm - N/A   Clear
12:56 AM 31.3 °F - 28.0 °F 88% 30.40 in 10.0 mi Calm Calm - N/A   Clear
1:16 AM 31.5 °F - 28.9 °F 90% 30.38 in 10.0 mi Calm Calm - N/A   Clear
1:36 AM 30.4 °F - 28.2 °F 92% 30.38 in 10.0 mi Calm Calm - N/A   Clear
1:56 AM 30.0 °F - 28.4 °F 94% 30.37 in 10.0 mi Calm Calm - N/A   Clear
2:16 AM 30.2 °F - 28.4 °F 93% 30.36 in 10.0 mi Calm Calm - N/A   Clear
2:36 AM 29.8 °F - 28.2 °F 94% 30.36 in 10.0 mi Calm Calm - N/A   Clear
2:56 AM 29.5 °F - 27.7 °F 93% 30.35 in 10.0 mi Calm Calm - N/A   Clear
3:16 AM 29.3 °F - 28.0 °F 95% 30.35 in 10.0 mi Calm Calm - N/A   Clear
3:36 AM 29.1 °F - 27.9 °F 95% 30.34 in 10.0 mi Calm Calm - N/A   Clear
3:56 AM 28.8 °F - 27.5 °F 95% 30.33 in 10.0 mi Calm Calm - N/A   Clear
4:16 AM 28.0 °F - 26.6 °F 94% 30.33 in 10.0 mi Calm Calm - N/A   Clear
4:36 AM 27.5 °F - 26.6 °F 96% 30.33 in 10.0 mi Calm Calm - N/A   Clear
4:56 AM 28.9 °F - 26.6 °F 91% 30.32 in 10.0 mi Calm Calm - N/A   Clear
5:16 AM 28.8 °F - 26.6 °F 92% 30.30 in 10.0 mi Calm Calm - N/A   Clear
5:36 AM 27.5 °F - 26.1 °F 94% 30.30 in 10.0 mi Calm Calm - N/A   Clear
5:56 AM 27.7 °F - 26.1 °F 94% 30.30 in 10.0 mi Calm Calm - N/A   Clear
6:16 AM 27.9 °F - 26.1 °F 93% 30.30 in 10.0 mi Calm Calm - N/A   Clear
6:36 AM 28.2 °F - 25.7 °F 90% 30.30 in 10.0 mi Calm Calm - N/A   Clear
6:56 AM 29.3 °F - 26.8 °F 90% 30.29 in 10.0 mi Calm Calm - N/A   Clear
7:16 AM 30.9 °F - 28.9 °F 92% 30.29 in 10.0 mi Calm Calm - N/A   Clear
7:36 AM 32.2 °F - 29.7 °F 90% 30.29 in 10.0 mi Calm Calm - N/A   Clear
7:56 AM 35.1 °F - 29.5 °F 80% 30.28 in 10.0 mi Calm Calm - N/A   Clear
8:16 AM 36.9 °F - 29.1 °F 74% 30.27 in 10.0 mi Calm Calm - N/A   Clear
8:36 AM 38.3 °F - 29.5 °F 71% 30.26 in 10.0 mi Calm Calm - N/A   Clear
8:56 AM 40.5 °F - 29.3 °F 64% 30.26 in 10.0 mi Calm Calm - N/A   Clear
9:16 AM 42.8 °F - 29.1 °F 58% 30.25 in 10.0 mi Calm Calm - N/A   Clear
9:36 AM 44.4 °F - 28.0 °F 53% 30.25 in 10.0 mi Calm Calm - N/A   Clear
9:56 AM 46.8 °F - 27.7 °F 47% 30.24 in 10.0 mi NE 4.6 mph - N/A   Clear
10:16 AM 50.0 °F - 29.1 °F 45% 30.23 in 10.0 mi ENE 4.6 mph - N/A   Clear
10:36 AM 50.9 °F - 24.4 °F 36% 30.22 in 10.0 mi East 4.6 mph - N/A   Clear
10:56 AM 52.2 °F - 26.1 °F 36% 30.22 in 10.0 mi East 4.6 mph - N/A   Clear
11:16 AM 52.9 °F - 24.3 °F 33% 30.22 in 10.0 mi Calm Calm - N/A   Clear
11:36 AM 53.2 °F - 24.3 °F 32% 30.21 in 10.0 mi NE 3.5 mph - N/A   Clear
11:56 AM 54.3 °F - 23.0 °F 30% 30.20 in 10.0 mi Calm Calm - N/A   Clear
12:16 PM 54.5 °F - 24.4 °F 31% 30.19 in 10.0 mi ESE 5.8 mph - N/A   Clear
12:36 PM 55.6 °F - 25.2 °F 31% 30.19 in 10.0 mi ENE 3.5 mph - N/A   Clear
12:56 PM 56.7 °F - 26.4 °F 31% 30.18 in 10.0 mi ENE 5.8 mph - N/A   Clear
1:16 PM 56.5 °F - 26.2 °F 31% 30.17 in 10.0 mi NE 4.6 mph - N/A   Clear
1:36 PM 57.4 °F - 24.4 °F 28% 30.17 in 10.0 mi NNE 10.4 mph - N/A   Clear
1:56 PM 58.3 °F - 25.2 °F 28% 30.15 in 10.0 mi NNE 9.2 mph - N/A   Clear
2:16 PM 58.6 °F - 24.4 °F 27% 30.15 in 10.0 mi NNE 9.2 mph 16.1 mph N/A   Clear
2:36 PM 58.5 °F - 24.8 °F 27% 30.15 in 10.0 mi Calm Calm - N/A   Clear
2:56 PM 58.6 °F - 25.5 °F 28% 30.14 in 10.0 mi ENE 5.8 mph - N/A   Clear
3:16 PM 58.5 °F - 23.9 °F 26% 30.13 in 10.0 mi North 4.6 mph - N/A   Clear
3:36 PM 58.3 °F - 24.6 °F 27% 30.12 in 10.0 mi NE 6.9 mph - N/A   Clear
3:56 PM 58.8 °F - 25.7 °F 28% 30.11 in 10.0 mi North 8.1 mph - N/A   Clear
4:16 PM 59.2 °F - 25.9 °F 28% 30.11 in 10.0 mi ENE 4.6 mph - N/A   Clear
4:36 PM 58.8 °F - 25.2 °F 28% 30.10 in 10.0 mi Calm Calm - N/A   Clear
4:56 PM 59.5 °F - 23.7 °F 25% 30.10 in 10.0 mi North 3.5 mph - N/A   Clear
5:16 PM 58.5 °F - 24.3 °F 27% 30.10 in 10.0 mi Calm Calm - N/A   Clear
5:36 PM 58.1 °F - 25.0 °F 28% 30.10 in 10.0 mi ENE 4.6 mph - N/A   Clear
5:56 PM 57.9 °F - 24.6 °F 28% 30.10 in 10.0 mi Calm Calm - N/A   Clear
6:16 PM 57.7 °F - 25.0 °F 28% 30.10 in 10.0 mi Calm Calm - N/A   Clear
6:36 PM 56.7 °F - 27.0 °F 32% 30.09 in 10.0 mi North 3.5 mph - N/A   Clear
6:56 PM 56.5 °F - 27.9 °F 33% 30.09 in 10.0 mi North 3.5 mph - N/A   Clear
7:16 PM 56.1 °F - 31.8 °F 40% 30.10 in 10.0 mi Calm Calm - N/A   Clear
7:36 PM 55.2 °F - 31.5 °F 40% 30.10 in 10.0 mi NE 5.8 mph - N/A   Clear
7:56 PM 54.0 °F - 28.2 °F 37% 30.10 in 10.0 mi ENE 4.6 mph - N/A   Clear
8:16 PM 52.5 °F - 29.7 °F 42% 30.11 in 10.0 mi ENE 3.5 mph - N/A   Clear
8:36 PM 50.9 °F - 30.9 °F 46% 30.11 in 10.0 mi ENE 3.5 mph - N/A   Clear
8:56 PM 46.9 °F - 32.7 °F 58% 30.12 in 10.0 mi Calm Calm - N/A   Clear
9:16 PM 47.7 °F - 31.8 °F 54% 30.13 in 10.0 mi Calm Calm - N/A   Clear
9:36 PM 46.6 °F - 32.7 °F 59% 30.14 in 10.0 mi Calm Calm - N/A   Clear
9:56 PM 46.6 °F - 33.3 °F 60% 30.14 in 10.0 mi Calm Calm - N/A   Scattered Clouds
10:16 PM 46.6 °F - 32.7 °F 59% 30.14 in 10.0 mi North 4.6 mph - N/A   Scattered Clouds
10:36 PM 45.5 °F 42.5 °F 32.0 °F 59% 30.15 in 10.0 mi North 5.8 mph - N/A   Scattered Clouds
10:56 PM 44.8 °F 43.3 °F 32.4 °F 62% 30.15 in 10.0 mi North 3.5 mph - N/A   Clear
11:16 PM 42.8 °F - 33.6 °F 70% 30.14 in 10.0 mi Calm Calm - N/A   Clear
11:36 PM 42.1 °F - 33.3 °F 71% 30.15 in 10.0 mi Calm Calm - N/A   Clear
11:56 PM 41.0 °F - 33.3 °F 74% 30.14 in 10.0 mi Calm Calm - N/A   Clear